Location: Starry Hill Observatory
(46.8582°N, 122.3590°W)
Time: 04:59:04
(UTC-07:00)

ISS - Visible Passes

Search period start: 21 October 2014 00:00
Search period end: 31 October 2014 00:00
Orbit: 413 x 416 km, 51.6° (Epoch: 20 October)

Date Brightness Start Highest point End Pass type
(mag) Time Alt. Az. Time Alt. Az. Time Alt. Az.
21 Oct -2.7 18:59:00 10° WNW 19:02:15 45° NNE 19:04:50 15° E visible
21 Oct -1.3 20:35:46 10° WNW 20:37:43 29° W 20:37:43 29° W visible
22 Oct -3.2 19:46:39 10° WNW 19:49:59 74° SSW 19:50:44 49° SE visible
23 Oct -3.3 18:57:32 10° WNW 19:00:54 76° NNE 19:03:50 13° ESE visible
23 Oct -0.8 20:34:43 10° W 20:36:42 20° WSW 20:36:42 20° WSW visible
24 Oct -1.8 19:45:16 10° WNW 19:48:19 33° SW 19:49:54 21° SSE visible
25 Oct -2.5 18:55:58 10° WNW 18:59:15 53° SSW 19:02:30 10° SE visible
26 Oct -0.4 19:44:22 10° W 19:46:19 15° SW 19:48:16 10° S visible
27 Oct -0.9 18:54:33 10° W 18:57:16 23° SW 19:00:00 10° SSE visible
29 Oct 0.4 18:54:43 10° SW 18:54:59 10° SW 18:55:15 10° SW visible
